When you browse on this site, cookies collect data to enhance your experience and personalize the content and advertising you see.
Visit our Privacy Policy to learn more. By continuing to use the site, you agree to this use of cookies and data.
  • In Austria
  • List of Countries
  • For 7 days
  • Water Temperature
  • Weather Map
  • News
  • Weather Widgets
  • user-avatar
    Login

    Hourly Weather Nagoya

    Today, 20 August, Tuesday

    Time Temperature Precipitation Wind Pressure Humidity
    00:00 +29°C° 0 mm 2 mps 748 mmHg 79%
    01:00 +29°C° 0.1 mm 2 mps 748 mmHg 80%
    02:00 +29°C° 0.1 mm 2 mps 747 mmHg 81%
    03:00 +28°C° 0 mm 1 mps 748 mmHg 80%
    04:00 +28°C° 0.4 mm 1 mps 748 mmHg 81%
    05:00 +28°C° 0.4 mm 2 mps 747 mmHg 81%
    06:00 +29°C° 0.4 mm 2 mps 747 mmHg 82%
    07:00 +30°C° 0.6 mm 2 mps 748 mmHg 77%
    08:00 +31°C° 0.6 mm 2 mps 748 mmHg 72%
    09:00 +32°C° 0 mm 1 mps 748 mmHg 67%
    10:00 +33°C° 0.7 mm 1 mps 748 mmHg 64%
    11:00 +34°C° 0.7 mm 1 mps 747 mmHg 61%
    12:00 +35°C° 0.7 mm 1 mps 747 mmHg 57%
    13:00 +35°C° 0.8 mm 1 mps 747 mmHg 56%
    14:00 +36°C° 0.8 mm 2 mps 747 mmHg 56%
    15:00 +35°C° 0 mm 1 mps 747 mmHg 53%
    16:00 +35°C° 0.1 mm 1 mps 747 mmHg 56%
    17:00 +34°C° 0.1 mm 1 mps 747 mmHg 59%
    18:00 +34°C° 0.1 mm 2 mps 746 mmHg 63%
    19:00 +32°C° 0 mm 2 mps 747 mmHg 64%
    20:00 +32°C° 0 mm 2 mps 747 mmHg 66%
    21:00 +31°C° 0 mm 1 mps 747 mmHg 70%
    22:00 +31°C° 0.3 mm 1 mps 747 mmHg 71%
    23:00 +30°C° 0.3 mm 1 mps 747 mmHg 73%

    Tomorrow, 21 August, Wednesday

    Time Temperature Precipitation Wind Pressure Humidity
    00:00 +30°C° 0.3 mm 1 mps 747 mmHg 75%
    01:00 +30°C° 0.2 mm 1 mps 747 mmHg 75%
    02:00 +29°C° 0.2 mm 1 mps 746 mmHg 76%
    03:00 +29°C° 0.2 mm 1 mps 746 mmHg 77%
    04:00 +29°C° 0.2 mm 1 mps 746 mmHg 77%
    05:00 +29°C° 0.2 mm 1 mps 747 mmHg 76%
    06:00 +29°C° 0.2 mm 1 mps 747 mmHg 76%
    07:00 +30°C° 0.1 mm 1 mps 747 mmHg 74%
    08:00 +30°C° 0.1 mm 1 mps 747 mmHg 72%
    09:00 +30°C° 0.1 mm 1 mps 747 mmHg 70%
    10:00 +31°C° 0 mm 1 mps 747 mmHg 65%
    11:00 +32°C° 0 mm 1 mps 747 mmHg 60%
    12:00 +33°C° 0 mm 1 mps 747 mmHg 55%
    13:00 +33°C° 0.1 mm 1 mps 746 mmHg 54%
    14:00 +35°C° 0.1 mm 2 mps 746 mmHg 53%
    15:00 +35°C° 0.1 mm 2 mps 746 mmHg 52%
    16:00 +33°C° 0.3 mm 3 mps 746 mmHg 59%
    17:00 +31°C° 0.3 mm 3 mps 746 mmHg 66%
    18:00 +29°C° 0.3 mm 3 mps 746 mmHg 72%
    19:00 +29°C° 0.9 mm 2 mps 747 mmHg 73%
    20:00 +29°C° 0.9 mm 2 mps 747 mmHg 74%
    21:00 +29°C° 0.9 mm 1 mps 747 mmHg 75%
    22:00 +28°C° 0.4 mm 1 mps 747 mmHg 76%
    23:00 +28°C° 0.4 mm 1 mps 747 mmHg 77%

    Day after tomorrow, 22 August, Thursday

    Time Temperature Precipitation Wind Pressure Humidity
    00:00 +28°C° 0.4 mm 1 mps 746 mmHg 78%
    01:00 +28°C° 0 mm 1 mps 746 mmHg 78%
    02:00 +28°C° 0 mm 1 mps 746 mmHg 79%
    03:00 +28°C° 0 mm 1 mps 746 mmHg 79%
    04:00 +28°C° 0 mm 1 mps 746 mmHg 79%
    05:00 +28°C° 0 mm 1 mps 747 mmHg 79%
    06:00 +28°C° 0 mm 1 mps 747 mmHg 79%
    07:00 +29°C° 0.1 mm 1 mps 747 mmHg 73%
    08:00 +31°C° 0.1 mm 1 mps 747 mmHg 68%
    09:00 +30°C° 0.1 mm 0 mps 747 mmHg 62%
    10:00 +33°C° 0 mm 1 mps 747 mmHg 56%
    11:00 +35°C° 0 mm 1 mps 747 mmHg 50%
    12:00 +36°C° 0 mm 1 mps 746 mmHg 44%
    13:00 +37°C° 0 mm 2 mps 746 mmHg 45%
    14:00 +36°C° 0 mm 2 mps 746 mmHg 46%
    15:00 +36°C° 0 mm 2 mps 745 mmHg 47%
    16:00 +35°C° 0.2 mm 2 mps 745 mmHg 52%
    17:00 +34°C° 0.2 mm 2 mps 745 mmHg 56%
    18:00 +32°C° 0.2 mm 2 mps 745 mmHg 61%
    19:00 +31°C° 0.7 mm 2 mps 746 mmHg 63%
    20:00 +30°C° 0.7 mm 2 mps 746 mmHg 66%
    21:00 +30°C° 0.7 mm 2 mps 746 mmHg 68%
    22:00 +29°C° 0.4 mm 2 mps 746 mmHg 69%
    23:00 +29°C° 0.4 mm 2 mps 746 mmHg 71%

    23 August, Friday

    Time Temperature Precipitation Wind Pressure Humidity
    00:00 +28°C° 0.4 mm 2 mps 745 mmHg 73%
    01:00 +28°C° 0.2 mm 2 mps 745 mmHg 73%
    02:00 +28°C° 0.2 mm 2 mps 745 mmHg 74%
    03:00 +28°C° 0.2 mm 2 mps 744 mmHg 75%
    04:00 +28°C° 0.1 mm 1 mps 744 mmHg 76%
    05:00 +28°C° 0.1 mm 1 mps 744 mmHg 76%
    06:00 +28°C° 0.1 mm 1 mps 744 mmHg 77%
    07:00 +28°C° 0.1 mm 1 mps 744 mmHg 76%
    08:00 +29°C° 0.1 mm 1 mps 744 mmHg 74%
    09:00 +29°C° 0.1 mm 1 mps 744 mmHg 73%
    10:00 +30°C° 0.6 mm 1 mps 744 mmHg 72%
    11:00 +30°C° 0.6 mm 2 mps 744 mmHg 71%
    12:00 +31°C° 0.6 mm 2 mps 744 mmHg 70%
    13:00 +30°C° 1.1 mm 2 mps 744 mmHg 71%
    14:00 +30°C° 1.1 mm 2 mps 744 mmHg 72%
    15:00 +30°C° 1.1 mm 1 mps 744 mmHg 73%
    16:00 +29°C° 1.4 mm 1 mps 744 mmHg 76%
    17:00 +28°C° 1.4 mm 1 mps 744 mmHg 80%
    18:00 +27°C° 1.4 mm 1 mps 744 mmHg 84%
    19:00 +27°C° 7.2 mm 1 mps 744 mmHg 87%
    20:00 +26°C° 7.2 mm 1 mps 745 mmHg 90%
    21:00 +26°C° 7.2 mm 1 mps 745 mmHg 93%
    22:00 +26°C° 5.8 mm 1 mps 745 mmHg 93%
    23:00 +26°C° 5.8 mm 1 mps 745 mmHg 92%

    24 August, Saturday

    Time Temperature Precipitation Wind Pressure Humidity
    00:00 +24°C° 5.8 mm 0 mps 745 mmHg 92%
    01:00 +26°C° 2.7 mm 1 mps 745 mmHg 92%
    02:00 +26°C° 2.7 mm 1 mps 745 mmHg 91%
    03:00 +26°C° 2.7 mm 2 mps 745 mmHg 91%
    04:00 +25°C° 1.4 mm 2 mps 745 mmHg 89%
    05:00 +25°C° 1.4 mm 3 mps 745 mmHg 87%
    06:00 +25°C° 1.4 mm 3 mps 745 mmHg 86%
    07:00 +25°C° 1.1 mm 2 mps 745 mmHg 82%
    08:00 +26°C° 1.1 mm 2 mps 745 mmHg 78%
    09:00 +26°C° 1.1 mm 1 mps 745 mmHg 73%
    10:00 +27°C° 0.1 mm 1 mps 745 mmHg 71%
    11:00 +28°C° 0.1 mm 1 mps 745 mmHg 68%
    12:00 +29°C° 0.1 mm 2 mps 745 mmHg 65%
    13:00 +29°C° 0.1 mm 2 mps 745 mmHg 63%
    14:00 +29°C° 0.1 mm 2 mps 744 mmHg 62%
    15:00 +30°C° 0.1 mm 2 mps 744 mmHg 61%
    16:00 +29°C° 0.1 mm 2 mps 744 mmHg 66%
    17:00 +27°C° 0.1 mm 3 mps 744 mmHg 71%
    18:00 +26°C° 0.1 mm 3 mps 744 mmHg 76%
    19:00 +26°C° 0.1 mm 2 mps 744 mmHg 78%
    20:00 +26°C° 0.1 mm 2 mps 745 mmHg 80%
    21:00 +25°C° 0.1 mm 1 mps 745 mmHg 81%
    22:00 +25°C° 0 mm 1 mps 745 mmHg 81%
    23:00 +23°C° 0 mm 0 mps 745 mmHg 81%

    25 August, Sunday

    Time Temperature Precipitation Wind Pressure Humidity
    00:00 +23°C° 0 mm 0 mps 744 mmHg 81%
    01:00 +25°C° 0 mm 1 mps 744 mmHg 81%
    02:00 +25°C° 0 mm 1 mps 744 mmHg 81%
    03:00 +25°C° 0 mm 2 mps 743 mmHg 81%
    04:00 +25°C° 0.1 mm 2 mps 744 mmHg 80%
    05:00 +25°C° 0.1 mm 2 mps 744 mmHg 80%
    06:00 +25°C° 0.1 mm 2 mps 744 mmHg 79%
    07:00 +26°C° 0.1 mm 1 mps 744 mmHg 76%
    08:00 +26°C° 0.1 mm 1 mps 744 mmHg 72%
    09:00 +26°C° 0.1 mm 1 mps 744 mmHg 69%
    10:00 +26°C° 0.9 mm 1 mps 744 mmHg 71%
    11:00 +26°C° 0.9 mm 2 mps 744 mmHg 73%
    12:00 +25°C° 0.9 mm 3 mps 744 mmHg 76%
    13:00 +26°C° 0.1 mm 2 mps 743 mmHg 70%
    14:00 +27°C° 0.1 mm 1 mps 743 mmHg 64%
    15:00 +28°C° 0.1 mm 1 mps 743 mmHg 58%
    16:00 +28°C° 0 mm 1 mps 742 mmHg 61%
    17:00 +28°C° 0 mm 1 mps 742 mmHg 63%
    18:00 +27°C° 0 mm 1 mps 742 mmHg 65%
    19:00 +27°C° 0 mm 2 mps 742 mmHg 69%
    20:00 +26°C° 0 mm 2 mps 743 mmHg 72%
    21:00 +26°C° 0 mm 3 mps 743 mmHg 76%
    22:00 +25°C° 0 mm 3 mps 743 mmHg 75%
    23:00 +25°C° 0 mm 3 mps 743 mmHg 75%
    Show more